Weather Roundup
Issued by NWS Corpus Christi, TX

Home | Current Version | Previous Version | Text Only | Print | Product List | Glossary On
Versions: 1 2 3 4 5 6 7 8 9 10 11 12 13 14 15 16 17 18 19 20 21 22 23 24 25 26 27 28 29 30 31 32 33 34 35 36 37 38 39 40 41 42 43 44 45 46 47 48 49 50
000
ASUS44 KCRP 250810
HRRCRP

SOUTH TEXAS REGIONAL WEATHER ROUNDUP
NATIONAL WEATHER SERVICE CORPUS CHRISTI TX
300 AM CDT MON JUL 25 2016


TXZ229>244-250900-
...CORPUS CHRISTI AREA OBSERVATIONS...

CITY           SKY/WX    TMP DP  RH WIND       PRES   REMARKS
CORPUS CHRISTI PTCLDY    80  77  90 SE5       29.91S
NAS CORPUS CHR CLEAR     84  79  85 S10       29.90F HX  96
ROCKPORT       PTCLDY    85  76  74 S7        29.90F HX  94
KINGSVILLE NAS PTCLDY    79  79 100 S3        29.90F
ALICE          PTCLDY    78  75  90 CALM      29.91S
FALFURRIAS     CLEAR     80  75  85 SE3       29.89F
$$

...VICTORIA AREA OBSERVATIONS...

CITY           SKY/WX    TMP DP  RH WIND       PRES   REMARKS
VICTORIA       CLOUDY    77  75  93 NE3       29.93S
BEEVILLE       FAIR      77  77 100 CALM      29.93S
PLEASANTON     PTCLDY    79  72  78 SE3       29.93F
SAN ANTONIO    CLEAR     80  73  79 SE9       29.96F
$$

...LAREDO AREA OBSERVATIONS...

CITY           SKY/WX    TMP DP  RH WIND       PRES   REMARKS
LAREDO         CLEAR     83  73  72 SE13      29.90F
COTULLA        CLEAR     83  73  72 SE10      29.91S
DEL RIO        CLEAR     86  71  60 E13       29.90S HX  91
MCALLEN        CLEAR     83  76  79 SE12      29.88F HX  91
HEBBRONVILLE   CLEAR     80  74  83 SE6       29.92F
$$

...OTHER TEXAS OBSERVATIONS...

CITY           SKY/WX    TMP DP  RH WIND       PRES   REMARKS
BROWNSVILLE    PTCLDY    81  78  91 SE9       29.90S
HOUSTON        CLOUDY    83  76  79 S3        29.93F HX  91
COL. STATION   LGT RAIN  82  76  81 S3        29.94F
AUSTIN         PTCLDY    80  74  81 S5        29.94F
WACO           CLEAR     84  72  67 S9        29.93S
FORT WORTH     PTCLDY    83  71  67 S5        29.93R
WICHITA FALLS  CLEAR     78  70  76 S9        29.94S
LUBBOCK        PTCLDY    77  60  55 SE6       30.07S
EL PASO        MOCLDY    89  50  26 N17       30.04S
$$

...MARINE OBSERVATIONS...

STATION/POSITION TIME  SKY/WX   TEMP    WIND        PRES    VSBY  WAVE   SWELL
                                AIR SEA DIR/SP/G                  HT/PER HT/PER
                 (UTC)          (F)     (DEG/KT/KT) (MB)    (MI)  (FT/S) (FT/S)
PORT ARANSAS     0800            85 88  160/ 15/ 17 1012.6F
BUOY 90 E PORT A 0750            85 86  170/  8/ 10 1013.0F         2/ 3   2/ 4
BUOY 45 SE BAFFI 0750            84 84  170/ 14/ 16 1011.8F         3/ 5
BUOY 200 E PT IS 0750            85 86  170/  8/ 10 1013.3F         2/ 5   2/ 5
BUOY 15 E GALVES 0750            86 89  210/  8/ 10 1013.2F         2/ 5   2/ 5
$$




USA.gov is the U.S. government's official web portal to all federal, state and local government web resources and services.